[[{"header":{"parameterUnit":"m.s-1","parameterCategory":1,"la1":30.2991,"la2":30.254,"lo1":-89.0895,"lo2":-89.0444,"dx":0.0017,"dy":0.0017,"nx":28,"ny":28,"refTime":"2022-12-23T15:00:00:Z","depth":0,"parameterNumber":2,"parameterNumberName":"U-component_of_WINDS"},"data":[0,0,0,0,0,0,0,0,0,0,0,0,0,0,0,0,0,0,0,0,0,0,0,0,0,0,0,0,0,0,0,0,0,0,0,0,0,0,0,0,0,0,0,0,0,0,0,0,0,0,0,0,0,0,0,0,0,0,1.8609,1.8609,0,1.8606,1.8606,1.8606,1.8579,1.8578,1.8577,1.8577,1.8573,1.8574,1.8575,0,0,0,0,0,0,0,0,0,0,0,0,0,1.859,1.8591,1.8609,1.8609,1.8609,1.8606,1.8606,1.8606,1.8579,1.8578,1.8577,1.8576,1.8573,1.8574,1.8575,0,0,0,0,0,0,0,0,0,0,0,0,0,1.8594,1.8591,1.8609,1.8595,1.8593,1.8606,1.8606,1.8606,1.8579,1.8578,1.8577,1.8576,1.8573,1.8574,1.8575,1.86,0,0,1.8577,1.8578,0,0,0,0,0,0,0,0,1.8594,1.8595,1.8597,1.8596,1.8594,1.8592,1.8598,1.8604,1.8579,1.8584,1.8577,1.8575,1.858,1.858,1.8582,1.86,1.86,1.8577,1.8578,1.8578,1.8578,0,0,0,0,0,0,0,1.8594,1.8595,1.8608,1.8597,1.8595,1.8589,1.8588,1.8599,1.8588,1.8584,1.8582,1.8582,1.8579,1.8581,1.8582,1.86,1.8577,1.8578,1.8579,1.8579,1.864,1.8641,0,0,0,0,0,0,1.8595,1.8595,1.8608,1.8607,1.8592,1.859,1.8589,1.8593,1.8588,1.8586,1.8583,1.8581,1.8581,1.8581,1.8582,1.8611,1.8578,1.8579,1.8579,1.8638,1.864,1.8641,0,0,0,0,0,0,1.8595,1.8597,1.8608,1.8601,1.8601,1.8591,1.8596,1.8594,1.8596,1.8587,1.8585,1.8587,1.858,1.8581,1.8596,1.8611,1.8579,1.858,1.8637,1.8639,1.864,1.8671,0,0,0,0,0,0,1.8595,1.8597,1.8606,1.8601,1.8602,1.8622,1.8597,1.8595,1.8597,1.8595,1.859,1.8589,1.8579,1.8595,1.8597,1.8611,1.8581,1.8636,1.8638,1.864,1.8668,1.8673,1.8677,0,0,0,0,0,1.8594,1.8615,1.8607,1.8609,1.8613,1.8623,1.8623,1.8612,1.8599,1.8608,1.8603,1.8589,1.8609,1.8597,1.8599,1.8614,1.8635,1.8637,1.864,1.8666,1.8672,1.8677,0,0,0,0,0,0,1.8621,1.8614,1.8605,1.8624,1.8625,1.8618,1.8629,1.8619,1.8622,1.8619,1.8605,1.8604,1.8622,1.862,1.8606,1.8638,1.862,1.8623,1.8639,1.8645,1.8649,1.8649,1.8581,0,0,0,0,0,1.863,1.8638,1.8631,1.8649,1.8649,1.864,1.8643,1.8635,1.8634,1.8634,1.863,1.863,1.8636,1.864,1.8646,1.8668,1.8667,1.868,1.8684,1.8688,1.869,1.8702,1.8707,1.8649,1.8649,1.8649,0,0,1.8646,1.8643,1.8649,1.8654,1.8653,1.8662,1.864,1.865,1.8656,1.8635,1.8649,1.8647,1.8646,1.8665,1.8673,1.8664,1.8706,1.8691,1.8694,1.8694,1.8705,1.8711,1.8716,1.8651,1.8651,1.865,0,0,1.8682,1.8681,1.8695,1.8695,1.8694,1.8688,1.8692,1.8688,1.8685,1.8699,1.8684,1.8692,1.8703,1.8703,1.8705,1.8742,1.8729,1.8745,1.8767,1.8779,1.8784,1.8788,1.88,1.8805,1.8747,1.8747,1.8747,0,1.8702,1.8715,1.8704,1.8716,1.8718,1.8701,1.8715,1.8716,1.8717,1.8719,1.8709,1.8723,1.8721,1.874,1.875,1.8752,1.8755,1.8744,1.8784,1.8788,1.8791,1.8803,1.8808,1.8749,1.8749,1.8749,1.8749,0,1.8741,1.875,1.8762,1.8764,1.8768,1.8782,1.8773,1.8778,1.877,1.8765,1.878,1.8778,1.8782,1.8787,1.8778,1.8805,1.8799,1.8787,1.8767,1.8799,1.881,1.8814,1.8752,1.8751,1.875,1.875,0,0,1.8791,1.8788,1.8792,1.8793,1.8792,1.8799,1.8812,1.8817,1.8822,1.8824,1.8834,1.8845,1.8834,1.8836,1.8828,1.8838,1.8868,1.8825,1.8824,1.8832,1.8896,1.8904,1.891,1.886,1.8861,1.8862,1.8896,0,1.8824,1.8845,1.8836,1.8859,1.8867,1.8852,1.8863,1.8864,1.886,1.8867,1.8863,1.887,1.8856,1.8857,1.8866,1.8862,1.888,1.886,1.8869,1.8869,1.8868,1.8915,1.8924,1.8956,1.89,1.8901,1.8901,0,1.8865,1.8869,1.8892,1.889,1.8894,1.8904,1.8908,1.8915,1.8916,1.8913,1.8916,1.8906,1.8918,1.8901,1.8918,1.8904,1.8908,1.8906,1.8907,1.8906,1.8886,1.8915,1.8966,1.8971,1.8908,1.8907,1.8907,0,1.8898,1.891,1.8925,1.8926,1.8925,1.8932,1.8932,1.8932,1.8936,1.894,1.8943,1.8948,1.8951,1.8956,1.8948,1.8935,1.8966,1.8947,1.8963,1.8963,1.8968,1.8968,1.902,1.8973,1.8973,1.8973,1.8973,0,1.8935,1.8949,1.894,1.8949,1.8965,1.8956,1.8972,1.897,1.897,1.8979,1.8967,1.8975,1.8965,1.8972,1.8966,1.8981,1.8983,1.898,1.8978,1.898,1.8981,1.8981,1.8978,1.8974,1.8974,1.8974,1.8973,0,1.8973,1.8968,1.8983,1.8981,1.8981,1.8993,1.8991,1.9,1.8996,1.9008,1.901,1.9004,1.9012,1.9005,1.9013,1.9009,1.9029,1.9024,1.9028,1.9026,1.9042,1.904,1.9095,1.9102,1.9052,1.9053,1.9053,0,1.8996,1.9007,1.9007,1.9012,1.9013,1.9022,1.9026,1.9017,1.9022,1.9025,1.9033,1.9041,1.9046,1.9061,1.9057,1.9063,1.9058,1.9077,1.9058,1.9061,1.9057,1.9056,1.9056,1.908,1.908,1.9081,1.9081,0,1.9038,1.9035,1.9042,1.9048,1.9054,1.9058,1.9061,1.9066,1.9058,1.9064,1.9073,1.9077,1.9086,1.9094,1.9099,1.9099,1.9088,1.9087,1.9091,1.9093,1.9094,1.9093,1.9037,1.9086,1.9085,1.9085,1.9085,1.9084,1.9069,1.9078,1.9079,1.9087,1.9089,1.9093,1.9101,1.9099,1.9107,1.9113,1.9108,1.9119,1.912,1.9126,1.9127,1.9135,1.9127,1.9133,1.9134,1.9135,1.9137,1.9095,1.9136,1.9136,1.9136,1.9136,1.9136,0,1.9109,1.9109,1.9117,1.9123,1.9129,1.9121,1.9124,1.913,1.914,1.9142,1.9148,1.9159,1.9166,1.9164,1.9171,1.9177,1.9173,1.9179,1.9178,1.9178,1.9144,1.914,1.9183,1.9183,1.9183,1.9183,1.9183,1.9183,1.913,1.9145,1.9143,1.9159,1.9159,1.917,1.9173,1.9176,1.9178,1.919,1.9197,1.9196,1.9196,1.9203,1.921,1.9209,1.9212,1.922,1.9217,1.9185,1.918,1.9176,1.9172,1.9221,1.9221,1.925,1.925,1.925]},{"header":{"parameterUnit":"m.s-1","parameterCategory":1,"la1":30.2991,"la2":30.254,"lo1":-89.0895,"lo2":-89.0444,"dx":0.0017,"dy":0.0017,"nx":28,"ny":28,"refTime":"2022-12-23T15:00:00:Z","depth":0,"parameterNumber":3,"parameterNumberName":"V-component_of_WINDS"},"data":[0,0,0,0,0,0,0,0,0,0,0,0,0,0,0,0,0,0,0,0,0,0,0,0,0,0,0,0,0,0,0,0,0,0,0,0,0,0,0,0,0,0,0,0,0,0,0,0,0,0,0,0,0,0,0,0,0,0,-5.2501,-5.2503,0,-5.2659,-5.2661,-5.2663,-5.2616,-5.2613,-5.261,-5.2607,-5.2765,-5.2772,-5.2779,0,0,0,0,0,0,0,0,0,0,0,0,0,-5.2156,-5.2163,-5.2501,-5.2503,-5.2505,-5.2659,-5.2661,-5.2663,-5.2617,-5.2613,-5.2609,-5.2605,-5.2763,-5.2771,-5.278,0,0,0,0,0,0,0,0,0,0,0,0,0,-5.2309,-5.2165,-5.2501,-5.2501,-5.2502,-5.2658,-5.2661,-5.2664,-5.2618,-5.2613,-5.2608,-5.2603,-5.276,-5.2771,-5.2781,-5.2946,0,0,-5.2815,-5.2819,0,0,0,0,0,0,0,0,-5.2301,-5.2322,-5.2499,-5.2501,-5.2503,-5.2613,-5.2597,-5.2758,-5.2619,-5.2574,-5.2606,-5.2601,-5.2718,-5.2732,-5.2773,-5.2954,-5.2961,-5.2816,-5.2822,-5.2827,-5.283,0,0,0,0,0,0,0,-5.229,-5.2315,-5.2563,-5.2501,-5.2504,-5.2491,-5.2508,-5.2628,-5.2671,-5.2577,-5.2574,-5.2594,-5.2718,-5.2762,-5.2776,-5.2963,-5.2815,-5.2825,-5.2832,-5.2836,-5.3285,-5.329,0,0,0,0,0,0,-5.2278,-5.2306,-5.2558,-5.2568,-5.2388,-5.2502,-5.252,-5.2582,-5.267,-5.2679,-5.2598,-5.2591,-5.2746,-5.2763,-5.2781,-5.2979,-5.2827,-5.2837,-5.2843,-5.328,-5.3286,-5.3292,0,0,0,0,0,0,-5.2271,-5.2301,-5.2552,-5.2437,-5.2468,-5.2513,-5.2583,-5.2588,-5.2632,-5.2685,-5.2693,-5.2635,-5.2743,-5.2766,-5.2905,-5.2984,-5.2842,-5.2852,-5.3273,-5.3282,-5.3289,-5.3376,0,0,0,0,0,0,-5.2262,-5.2299,-5.2363,-5.2438,-5.2474,-5.2675,-5.2588,-5.2595,-5.2651,-5.2644,-5.2722,-5.273,-5.2741,-5.2889,-5.2916,-5.2996,-5.286,-5.3267,-5.3277,-5.3287,-5.3367,-5.3386,-5.3403,0,0,0,0,0,-5.2249,-5.2381,-5.2367,-5.2397,-5.2555,-5.268,-5.27,-5.271,-5.2658,-5.2722,-5.2756,-5.2728,-5.2971,-5.2904,-5.2934,-5.3018,-5.3262,-5.3274,-5.3286,-5.3358,-5.3382,-5.3403,0,0,0,0,0,0,-5.2314,-5.2391,-5.2376,-5.2536,-5.2602,-5.2672,-5.2753,-5.2736,-5.2817,-5.2806,-5.2815,-5.2833,-5.2975,-5.3011,-5.2935,-5.3182,-5.3108,-5.3127,-5.3153,-5.3177,-5.3195,-5.3183,-5.2869,0,0,0,0,0,-5.2347,-5.2442,-5.2504,-5.264,-5.2673,-5.2708,-5.2762,-5.2765,-5.2832,-5.286,-5.2904,-5.297,-5.3061,-5.3121,-5.3208,-5.3372,-5.3387,-5.3444,-5.3462,-5.3477,-5.3493,-5.358,-5.3606,-5.3332,-5.3332,-5.3332,0,0,-5.2415,-5.247,-5.2529,-5.2654,-5.2705,-5.2802,-5.2731,-5.2838,-5.291,-5.2875,-5.301,-5.3045,-5.3118,-5.327,-5.334,-5.3304,-5.3572,-5.3493,-5.3504,-5.3512,-5.3596,-5.3622,-5.3645,-5.334,-5.3339,-5.3338,0,0,-5.259,-5.2642,-5.2759,-5.2812,-5.289,-5.2912,-5.294,-5.3013,-5.3035,-5.317,-5.3145,-5.323,-5.3388,-5.3441,-5.3489,-5.3683,-5.3659,-5.3711,-5.3806,-5.3891,-5.3913,-5.3932,-5.4,-5.4024,-5.3726,-5.3727,-5.3727,0,-5.2666,-5.2813,-5.2822,-5.2931,-5.2985,-5.2959,-5.3077,-5.3128,-5.323,-5.3268,-5.3227,-5.3423,-5.3471,-5.3634,-5.3681,-5.3722,-5.3753,-5.3701,-5.3909,-5.3929,-5.3946,-5.4011,-5.4037,-5.3732,-5.3732,-5.3731,-5.373,0,-5.2901,-5.3003,-5.3088,-5.3188,-5.3253,-5.3366,-5.3391,-5.3454,-5.3451,-5.3476,-5.3613,-5.367,-5.3767,-5.3806,-5.3804,-5.3969,-5.3944,-5.3907,-5.3833,-5.3978,-5.4039,-5.4064,-5.374,-5.3738,-5.3737,-5.3735,0,0,-5.3121,-5.3224,-5.3255,-5.3299,-5.3383,-5.3462,-5.3573,-5.3668,-5.3722,-5.3793,-5.3885,-5.4019,-5.3984,-5.4038,-5.4041,-5.4116,-5.4264,-5.4069,-5.4071,-5.4102,-5.4448,-5.4475,-5.4503,-5.4249,-5.4254,-5.4258,-5.4441,0,-5.3302,-5.3498,-5.3509,-5.3687,-5.378,-5.3756,-5.3852,-5.3913,-5.394,-5.4022,-5.405,-5.4144,-5.4092,-5.4124,-5.4198,-5.4231,-5.4333,-5.4218,-5.4333,-5.4337,-5.4315,-5.4535,-5.4565,-5.4735,-5.4465,-5.4469,-5.4472,0,-5.354,-5.3619,-5.3806,-5.3875,-5.3914,-5.4001,-5.4088,-5.4168,-5.4236,-5.425,-5.431,-5.4302,-5.4414,-5.4337,-5.449,-5.4411,-5.4459,-5.4482,-5.4489,-5.4499,-5.4413,-5.4551,-5.479,-5.4815,-5.451,-5.4507,-5.4504,0,-5.3681,-5.3833,-5.3964,-5.4003,-5.4087,-5.4148,-5.4186,-5.4249,-5.4306,-5.4382,-5.4418,-5.4506,-5.4554,-5.4622,-5.4638,-5.4581,-5.479,-5.4715,-5.4804,-5.4803,-5.4848,-5.4845,-5.5097,-5.4881,-5.4881,-5.488,-5.488,0,-5.3881,-5.3996,-5.4028,-5.4109,-5.4236,-5.4246,-5.4372,-5.4405,-5.4462,-5.4547,-5.4531,-5.4612,-5.4628,-5.4711,-5.4724,-5.4848,-5.487,-5.4883,-5.4885,-5.4884,-5.4882,-5.4915,-5.4903,-5.4887,-5.4886,-5.4884,-5.4883,0,-5.4059,-5.4086,-5.4227,-5.4295,-5.4314,-5.4405,-5.4462,-5.4539,-5.4563,-5.4671,-5.4697,-5.4735,-5.4832,-5.4855,-5.497,-5.4978,-5.5125,-5.5116,-5.5102,-5.5101,-5.5188,-5.5179,-5.5469,-5.5507,-5.5267,-5.5269,-5.5271,0,-5.4185,-5.4273,-5.435,-5.4407,-5.4447,-5.4539,-5.4596,-5.4609,-5.4669,-5.4752,-5.4818,-5.4914,-5.4991,-5.5147,-5.5184,-5.5271,-5.5263,-5.5359,-5.5276,-5.5272,-5.5263,-5.5257,-5.5265,-5.5374,-5.5377,-5.5379,-5.5381,0,-5.4406,-5.4414,-5.4498,-5.4586,-5.4655,-5.4725,-5.4791,-5.4838,-5.486,-5.4928,-5.5027,-5.5087,-5.5204,-5.5299,-5.5387,-5.5424,-5.5406,-5.5407,-5.5431,-5.5431,-5.5419,-5.5425,-5.5144,-5.54,-5.5398,-5.5396,-5.5395,-5.5395,-5.4561,-5.4637,-5.4703,-5.4796,-5.4847,-5.491,-5.4984,-5.5018,-5.5101,-5.5198,-5.5201,-5.5309,-5.5372,-5.5489,-5.5531,-5.5615,-5.5585,-5.5621,-5.563,-5.5639,-5.5646,-5.5407,-5.5631,-5.563,-5.563,-5.5629,-5.5629,0,-5.4779,-5.482,-5.4906,-5.4999,-5.5072,-5.505,-5.5122,-5.5184,-5.5279,-5.5341,-5.5417,-5.553,-5.5621,-5.5665,-5.5754,-5.5813,-5.5807,-5.5836,-5.5831,-5.5839,-5.5668,-5.5637,-5.5839,-5.5839,-5.5839,-5.5839,-5.5839,-5.5839,-5.4901,-5.5028,-5.5044,-5.5196,-5.5236,-5.5342,-5.5385,-5.5442,-5.5491,-5.5618,-5.5694,-5.5722,-5.5776,-5.5869,-5.5951,-5.5962,-5.5995,-5.6028,-5.6034,-5.5873,-5.5852,-5.5831,-5.5802,-5.6035,-5.6035,-5.6198,-5.62,-5.6201]}]]